Regional Weather Roundup
Issued by NWS Newport/Morehead, NC

Current Version | Previous Version | Graphics & Text | Print | Product List | Glossary On
Versions: 1 2 3 4 5 6 7 8 9 10 11 12 13 14 15 16 17 18 19 20 21 22 23 24 25 26 27 28 29 30 31 32 33 34 35 36 37 38 39 40 41 42 43 44 45 46 47 48 49 50
000 ASUS42 KMHX 280813 RWRMHX WEATHER ROUNDUP FOR EASTERN NORTH CAROLINA NATIONAL WEATHER SERVICE NEWPORT/MOREHEAD CITY NC 400 AM EDT FRI AUG 28 2015 NOTE: "FAIR" INDICATES FEW OR NO CLOUDS BELOW 12,000 FEET WITH NO SIGNIFICANT WEATHER AND/OR OBSTRUCTIONS TO VISIBILITY NCZ015>017-031-032-045>047-102-103-280900- NORTH COAST CITY SKY/WX TMP DP RH WIND PRES REMARKS EDENTON CLOUDY 66 62 86 N3 30.10F ELIZABETH CITY CLOUDY 72 65 78 N7 30.09F KITTY HAWK CLOUDY 75 61 62 NE7 30.07F MANTEO CLOUDY 74 62 66 NE12 30.08F $$ NCZ045>047-081-094-103-104-280900- CENTRAL COAST CITY SKY/WX TMP DP RH WIND PRES REMARKS FRISCO CLOUDY 74 68 81 NE8 30.06F SWANQUARTER NOT AVBL $$ NCZ095-097-098-100-101-280900- SOUTHERN COAST CITY SKY/WX TMP DP RH WIND PRES REMARKS BEAUFORT MOCLDY 71 68 90 NE8 30.05F CEDAR ISLAND NOT AVBL JACKSONVILLE PTCLDY 68 63 84 N6 30.06F PINEY ISLAND PTSUNNY N/A N/A N/A NE18G25 30.05F WILMINGTON MOCLDY 69 64 84 NE8 30.06S $$ NCZ011>013-027>030-043-044-078>080-089-090>093-098-280900- COASTAL PLAIN CITY SKY/WX TMP DP RH WIND PRES REMARKS AHOSKIE MOCLDY 64 62 93 CALM 30.11F CLINTON PTCLDY 69 65 87 CALM 30.09S ELIZABETHTOWN PTCLDY 68 64 86 CALM 30.07F GOLDSBORO MOCLDY 66 63 91 N3 30.08F GREENVILLE MOCLDY 63 63 100 CALM 30.11F HAVELOCK PTCLDY 73 65 75 NE8 30.07F KENANSVILLE N/A 67 64 90 CALM 30.09F KINSTON MOCLDY 66 64 91 N3 30.09F NEW BERN MOCLDY 70 65 84 NE5 30.09S RICHLANDS MOCLDY 66 61 82 N7 30.08S ROCKY MOUNT MOCLDY 65 61 87 NE3 30.12S WASHINGTON CLOUDY 67 63 86 NE3 30.09F WHITEVILLE PTCLDY 68 64 85 NE5 30.06F $$ AMZ130-135-150-152-154-156-158-170-250-252-270-ANZ085-086-088-633-658-670-280900- MARINE OBSERVATIONS STATION/POSITION TIME TEMP WIND PRES WAVE SWELL AIR SEA DIR/SP/G HT/PER HT/PER (UTC) (F) (DEG/KT/KT) (MB) (FT/S) (FT/S) CHESAPEAKE LIGHT 0800 76 40/ 9/ 11 1019.8 64 E VA BEACH 0750 76 79 20/ 14/ 16 1018.4 3/ 9 2/ 9 DUCK 0700 76 78 40/ 14/ 16 1018.3 2 E DUCK 0711 78 N/A 4/11 2/11 OREGON INLET 0700 75 77 20/ 13/ 17 1018.5 13E OREGON INLT 0800 79 N/A 5/ 5 2/12 HATTERAS CG 0700 76 80 40/ 9/ 15 1017.8 DIAMOND BUOY 0750 78 82 40/ 16/ 19 1017.1 4/ 8 3/ 8 CAPE LOOKOUT 0800 76 10/ 10/ 13 1017.2 BEAUFORT LAB 0700 73 80 20/ 10/ 13 1017.3 30 SE NEW RVR IN 0708 78 82 60/ 8/ 12 1017.3 30 SE NEW RVR IN 0725 82 N/A 3/ 5 2/12 27 SE WRIGHTSVLE 0700 75 82 60/ 12/ 14 N/A 5 SE WRIGHTSVLE 0708 76 82 50/ 19/ 25 1016.8 225 S CAPE HAT 0750 79 84 120/ 4/ 6 1015.8 3/ 8 3/ 8 41 SE CHARLESTON 0750 81 84 20/ 4/ 6 1015.8 3/ 9 3/ 9 $$

USA.gov is the U.S. government's official web portal to all federal, state and local government web resources and services.